星链-4340 (STARLINK-4340 )

导读 | 星芒AI

STARLINK-4340 是 SpaceX Starlink 项目中的一颗低轨通信卫星,属于第 13 批部署的星链卫星群。该卫星运行在约 550 公里的轨道高度,旨在为全球用户提供高速互联网服务。它采用先进的星间激光通信技术,提升网络效率与覆盖能力。STARLINK-4340 与其他星链卫星协同工作,支持偏远地区的网络连接,推动全球数字包容性发展。

基本信息
目录编号:
53494
目录名称:
STARLINK-4340
国际标识:
2022-099AF
轨道中心:
EARTH
卫星名称:
星链-4340
卫星全名:
星链-4340 (STARLINK-4340 )
卫星状态:
在轨 (已飞行1181 天)
发射日期:
2022-08-12 UTC
国别 :
美国 (US)
星等 :
--
轨道信息
数据来源 国际轨道数据
星历时间: 2025-11-04T14:57:57+0800
19小时前
查看轨道信息
半长轴: 6927.608km
偏心率: 0.0001641
轨道倾角: 97.602°
近地点辐角 101.375°
升交点赤经 67.654°
平近点角 258.766°
近地点: 548.336km
远地点: 550.61km
周期: 95.639分钟
每日圈数: 15.056634
详细信息
固有亮度:
5
最大亮度:
2.5
卫星平台:
Starlink v1.5
覆盖范围:
全球
运营商:
太空探索技术公司
运营商所在国:
美国
制造商(研发单位):
太空探索技术公司
制造商所在国:
美国
使用方式:
暂无
卫星简介
星链(Starlink)计划是由太空探索技术公司(SpaceX)提出的一个巨型低轨卫星互联网星座项目,计划在2019年至2024年间在太空搭建由约1.2万颗卫星组成的“星链”网络,其中1584颗将部署在地球上空550千米处的近地轨道,并从2020年开始工作。该卫星仍在工作。
2D轨道图
3D轨道图
轨道高度分析图
轨道倾角分析图
轨道综合分析图
查看轨道综合分析图